Vorticity
nan nan nan nan nan nan nan nan nan nan nan nan nan nan nan nan nan nan nan nan nan nan nan nan nan nan nan
nan 10 9 11 10 10 12 11 8 9 9 11 11 12 12 10 11 11 11 12 11 10 11 13 10 12 nan
nan 10 10 11 12 13 8 10 9 11 12 11 10 13 14 13 12 13 12 12 12 11 12 14 15 11 nan
nan 9 11 11 10 9 12 11 10 13 14 16 16 18 18 15 13 13 16 15 9 8 13 7 13 17 nan
nan 10 8 9 9 10 10 9 8 12 13 15 18 16 16 18 14 9 7 10 10 12 11 6 4 10 nan
nan 8 7 9 10 7 8 8 11 11 8 9 12 10 12 13 8 8 6 9 12 11 9 10 10 9 nan
nan 8 9 9 8 10 10 8 10 8 12 11 11 12 11 8 8 13 14 12 11 12 13 13 12 11 nan
nan 4 6 7 8 10 12 14 13 12 12 11 10 11 11 9 10 11 17 18 17 16 16 15 13 12 nan
nan 10 9 11 14 17 14 12 12 10 11 12 10 11 11 13 17 13 11 13 13 24 28 16 13 14 nan
nan 17 19 16 17 16 11 10 11 10 8 10 11 11 13 13 10 18 13 6 14 19 16 17 12 12 nan
nan 13 14 14 18 13 10 9 10 9 7 9 12 12 9 10 10 9 10 14 16 17 20 19 15 7 nan
nan 10 11 11 10 10 12 12 11 8 11 12 14 13 11 9 10 10 10 14 14 17 27 31 28 22 nan
nan 11 11 11 11 13 14 15 16 18 16 15 12 13 14 11 11 9 12 13 10 14 18 22 25 21 nan
nan 11 11 11 13 13 15 17 17 15 15 17 12 10 11 15 13 13 14 10 12 12 13 10 12 14 nan
nan 11 12 11 12 15 15 12 11 10 11 13 11 13 9 15 22 15 14 12 12 14 11 10 11 15 nan
nan 12 11 11 11 13 11 11 12 12 11 12 13 19 17 2 9 21 13 12 12 15 12 10 10 12 nan
nan nan nan nan nan nan nan nan nan nan nan nan nan nan nan nan nan nan nan nan nan nan nan nan nan nan nan
CAPE
4 9 2 6 8 32 22 24 32 30 37 45 50 53 31 19 23 28 37 44 53 40 39 39 167 220 193
8 2 2 0 9 18 35 20 18 9 25 41 67 71 48 26 22 30 33 32 41 48 29 24 31 115 177
29 12 12 14 12 16 14 2 0 29 41 44 42 46 73 68 46 56 66 40 38 39 36 31 29 14 90
44 43 39 11 31 17 0 1 11 25 12 2 13 33 51 71 78 86 79 82 46 26 40 31 17 50 25
45 69 66 12 6 5 14 5 2 12 4 5 19 18 7 18 29 75 76 36 40 50 20 11 15 2 17
68 32 9 6 4 18 23 13 10 9 33 7 4 0 0 0 2 24 33 19 12 10 25 21 33 9 1
36 15 11 8 16 23 31 42 24 10 31 9 12 12 21 36 49 33 36 32 26 20 31 47 40 28 9
21 13 19 23 34 37 24 19 17 15 25 20 10 15 0 9 43 39 35 24 31 29 32 50 49 31 25
45 47 42 40 27 10 9 23 10 14 18 5 11 18 11 9 0 0 31 33 21 26 50 52 56 42 25
6 3 7 7 24 14 15 19 13 8 1 19 11 16 11 0 0 0 0 1 14 26 8 8 15 1 3
7 8 6 13 15 12 14 12 12 9 0 7 5 7 7 5 2 0 0 2 14 1 4 1 0 1 2
14 12 11 8 5 6 6 4 5 5 3 4 0 2 1 2 0 0 0 3 1 0 0 1 3 3 16
15 9 7 5 2 2 1 1 0 1 1 0 1 0 0 1 1 0 0 1 0 0 0 0 0 0 0
12 7 4 1 1 1 0 0 4 11 8 8 4 3 0 0 0 0 1 0 0 0 0 0 0 0 0
6 4 3 2 0 0 8 1 8 3 0 2 3 1 1 1 1 3 2 0 0 0 0 0 0 0 0
3 2 1 0 0 5 6 4 7 1 0 0 0 0 1 2 9 0 0 0 0 0 0 0 0 0 1
2 2 1 0 10 3 2 1 0 0 0 0 0 0 1 0 1 9 0 0 0 0 0 0 0 0 2